Regional Weather Roundup
Issued by NWS

Home | Current Version | Previous Version | Text Only | Print | Product List | Glossary On
Versions: 1 2 3 4 5 6 7 8 9 10 11 12 13 14 15 16 17 18 19 20 21 22 23 24 25 26 27 28 29 30 31 32 33 34 35 36 37 38 39 40 41 42 43 44 45 46 47 48 49 50
000
ASUS43 KLSX 231459
RWRMO

WEATHER SUMMARY FOR MISSOURI
NATIONAL WEATHER SERVICE SPRINGFIELD MO
1000 AM CDT TUE SEP 23 2014

NOTE: "FAIR" INDICATES FEW OR NO CLOUDS BELOW 12,000 FEET WITH NO
       SIGNIFICANT WEATHER AND/OR OBSTRUCTIONS TO VISIBILITY.
       CURRENT SKY AND/OR WEATHER CONDITIONS ARE NOT AVAILABLE FOR
       CHILLICOTHE AND FARMINGTON.

MOZ001>031-035>038-043-044-053-054-231600-
...NORTHERN AND WESTERN MISSOURI...

CITY           SKY/WX    TMP DP  RH WIND       PRES   REMARKS
KANSAS CTY INT CLOUDY    62  54  74 S10       30.25S
KANSAS C DTWN  PTSUNNY   67  53  61 S9        30.26S
LEE`S SUMMIT   SUNNY     64  53  67 S7        30.28R
ST JOSEPH      CLOUDY    63  53  70 S12       30.23F
KIRKSVILLE     MOSUNNY   64  51  62 S9        30.32S

$$
MOZ066>068-077>081-088>096-101>105-231600-
...SOUTHWEST MISSOURI...

CITY           SKY/WX    TMP DP  RH WIND       PRES   REMARKS
SPRINGFIELD    SUNNY     63  49  60 S9        30.30R
JOPLIN         SUNNY     65  52  62 S10       30.28R

$$
MOZ032>034-039>042-045>050-055>058-069>072-231600-
...CENTRAL MISSOURI...

CITY           SKY/WX    TMP DP  RH WIND       PRES   REMARKS
COLUMBIA       MOSUNNY   62  53  72 S6        30.33R
JEFFERSON CITY SUNNY     58  51  78 CALM      30.33R
ROLLA          MOSUNNY   61  49  64 SE9       30.30S
SEDALIA        MOSUNNY   67  51  56 S13       30.31R
OSAGE BEACH    MOSUNNY   61  50  67 S5        30.32R

$$
MOZ051-052-059>065-231600-
...EAST CENTRAL MISSOURI...

CITY           SKY/WX    TMP DP  RH WIND       PRES   REMARKS
ST LOUIS INTL  PTSUNNY   65  48  54 SE8       30.34R
SPIRIT OF STL  MOSUNNY   58  54  86 CALM      30.33R
ST CHARLES     MOSUNNY   65  50  58 SE6       30.33R

$$
MOZ072>076-082>087-097>100-106>115-231600-
...SOUTH CENTRAL AND SOUTHEAST MISSOURI...

CITY           SKY/WX    TMP DP  RH WIND       PRES   REMARKS
CAPE GIRARDEAU SUNNY     63  51  65 E5        30.31R
FARMINGTON     SUNNY     61  50  67 CALM      30.34S
POPLAR BLUFF   SUNNY     63  50  62 VRB6      30.30R
WEST PLAINS    SUNNY     62  48  60 SE6       30.33R

$$


USA.gov is the U.S. government's official web portal to all federal, state and local government web resources and services.